Le nostre stazioni meteo in Italia

Pubblicità
Il mio iltempo24.it
Chateau Chinon, Francia (7270): Temperatura & dewpoint: 15.02.2020 03:00:00 - 21.02.2020 03:00:00 (CET)Chateau Chinon, Francia (7270): velocità del vento & gusts: 15.02.2020 03:00:00 - 21.02.2020 03:00:00 (CET)Chateau Chinon, Francia (7270): direzione del vento: 15.02.2020 03:00:00 - 21.02.2020 03:00:00 (CET)Chateau Chinon, Francia (7270): precipitazioni: 15.02.2020 03:00:00 - 21.02.2020 03:00:00 (CET)
Data & Tempo tt [°C] td [°C] ff [km/h] ff [kn] fx [km/h] fx [kn] dd rr [mm]
21.02.2020 03:00:00 - - - - - - - -
21.02.2020 02:00:00 2,4 1,2 5 3 22 12 ONO 0,0
21.02.2020 01:00:00 3,0 1,4 9 5 35 19 NO -
21.02.2020 00:00:00 4,2 3,3 8 4 35 19 ONO 0,0
20.02.2020 23:00:00 5,8 5,2 4 2 31 17 ONO 1,0
20.02.2020 22:00:00 6,6 4,3 8 4 39 21 ONO 0,0
20.02.2020 21:00:00 6,8 3,6 8 4 34 18 ONO 0,0
20.02.2020 20:00:00 6,7 3,1 8 4 31 17 ONO 0,0
20.02.2020 19:00:00 6,7 3,1 5 3 24 13 ONO -
20.02.2020 18:00:00 6,9 2,8 4 2 24 13 NO 0,0
20.02.2020 17:00:00 8,1 3,0 5 3 28 15 NNO 0,0
20.02.2020 16:00:00 9,0 3,4 4 2 29 16 ONO 0,0
20.02.2020 15:00:00 8,4 3,8 5 3 29 16 ONO 0,0
20.02.2020 14:00:00 7,7 4,1 5 3 29 16 ONO 0,0
20.02.2020 13:00:00 8,4 4,4 8 4 35 19 O -
20.02.2020 12:00:00 6,7 4,4 4 2 26 14 ONO 0,0
20.02.2020 11:00:00 6,4 4,9 5 3 26 14 O 0,0
20.02.2020 10:00:00 4,8 4,2 8 4 29 16 OSO 0,0
20.02.2020 09:00:00 4,3 4,2 8 4 31 17 O 0,0
20.02.2020 08:00:00 4,1 4,0 9 5 31 17 OSO 0,0
20.02.2020 07:00:00 4,1 4,0 8 4 29 16 OSO -
20.02.2020 06:00:00 4,3 4,2 5 3 24 13 O 0,0
20.02.2020 05:00:00 4,6 4,5 5 3 29 16 O 0,0
20.02.2020 04:00:00 4,8 4,7 5 3 24 13 O 0,0
20.02.2020 03:00:00 4,8 4,7 5 3 22 12 O 0,0
20.02.2020 02:00:00 4,8 4,7 4 2 28 15 ONO 0,0
20.02.2020 01:00:00 4,7 4,6 8 4 31 17 OSO -
20.02.2020 00:00:00 4,3 4,0 11 6 28 15 SSO 1,0
19.02.2020 23:00:00 4,6 3,4 8 4 29 16 OSO 0,4
19.02.2020 22:00:00 4,5 2,7 9 5 21 11 SSO 0,0
19.02.2020 21:00:00 4,5 3,0 8 4 22 12 SO 0,0
19.02.2020 20:00:00 4,0 2,8 4 2 13 7 O 0,2
19.02.2020 19:00:00 4,3 3,1 2 1 8 4 NO -
19.02.2020 18:00:00 4,8 2,5 0 0 11 6 N 0,0
19.02.2020 17:00:00 5,0 2,7 2 1 13 7 NNO 0,0
19.02.2020 16:00:00 5,0 2,4 2 1 22 12 ONO 0,0
19.02.2020 15:00:00 6,6 2,3 4 2 15 8 O 0,0
19.02.2020 14:00:00 5,9 2,0 4 2 21 11 ONO 0,0
19.02.2020 13:00:00 5,3 1,8 4 2 22 12 NO -
19.02.2020 12:00:00 5,3 3,0 4 2 16 9 NO 0,0
19.02.2020 11:00:00 3,9 3,2 4 2 22 12 ONO 0,0
19.02.2020 10:00:00 3,2 3,1 5 3 18 10 ONO 0,0
19.02.2020 09:00:00 3,8 3,8 4 2 16 9 ONO 0,0
19.02.2020 08:00:00 3,6 3,6 4 2 34 18 O 0,4
19.02.2020 07:00:00 4,1 4,1 5 3 34 18 NNO -
19.02.2020 06:00:00 3,8 3,8 8 4 37 20 ONO 1,0
19.02.2020 05:00:00 3,5 3,4 9 5 46 25 ONO 1,0
19.02.2020 04:00:00 3,3 3,2 9 5 48 26 ONO 1,0
19.02.2020 03:00:00 3,5 3,2 9 5 41 22 O 0,2
19.02.2020 02:00:00 3,4 3,0 8 4 41 22 ONO 0,0
19.02.2020 01:00:00 3,6 2,9 9 5 41 22 O -
19.02.2020 00:00:00 3,9 2,7 8 4 44 24 ONO 0,0
18.02.2020 23:00:00 4,4 2,6 9 5 35 19 O 0,0
18.02.2020 22:00:00 4,2 2,7 8 4 44 24 O 0,0
18.02.2020 21:00:00 4,4 2,7 8 4 34 18 O 0,0
18.02.2020 20:00:00 3,9 2,6 8 4 28 15 OSO 0,0
18.02.2020 19:00:00 3,3 2,1 4 2 26 14 O -
18.02.2020 18:00:00 4,1 2,8 4 2 18 10 O 0,2
18.02.2020 17:00:00 5,2 2,7 4 2 34 18 ONO 0,0
18.02.2020 16:00:00 5,9 2,9 4 2 22 12 O 0,2
18.02.2020 15:00:00 5,2 2,7 5 3 22 12 ONO 0,0
18.02.2020 14:00:00 5,8 3,3 4 2 24 13 O 0,0
18.02.2020 13:00:00 6,6 4,1 5 3 28 15 O -
18.02.2020 12:00:00 4,1 3,7 4 2 18 10 O 0,0
18.02.2020 11:00:00 4,1 4,1 4 2 16 9 O 0,0
18.02.2020 10:00:00 2,6 2,6 4 2 16 9 ONO 0,0
18.02.2020 09:00:00 1,9 1,9 5 3 16 9 OSO 0,0
18.02.2020 08:00:00 1,8 1,8 4 2 16 9 NNO 0,0
18.02.2020 07:00:00 2,1 2,0 4 2 22 12 NO -
18.02.2020 06:00:00 2,3 2,2 4 2 22 12 ONO 0,0
18.02.2020 05:00:00 2,3 2,2 4 2 16 9 ONO 0,0
18.02.2020 04:00:00 2,4 2,3 4 2 16 9 O 0,0
18.02.2020 03:00:00 2,6 2,5 4 2 24 13 ONO 0,0
18.02.2020 02:00:00 2,7 2,6 4 2 29 16 ONO 0,0
18.02.2020 01:00:00 2,7 2,4 4 2 22 12 NO -
18.02.2020 00:00:00 2,8 2,5 4 2 29 16 ONO 0,0
17.02.2020 23:00:00 3,0 2,6 4 2 26 14 NO 0,2
17.02.2020 22:00:00 3,5 3,2 5 3 18 10 ONO 0,0
17.02.2020 21:00:00 3,8 3,4 5 3 22 12 NO 0,0
17.02.2020 20:00:00 3,7 3,3 5 3 28 15 NO 0,0
17.02.2020 19:00:00 4,1 3,7 8 4 29 16 NO -
17.02.2020 18:00:00 6,3 4,8 9 5 37 20 O 0,0
17.02.2020 17:00:00 6,4 5,2 5 3 46 25 O 0,0
17.02.2020 16:00:00 6,6 5,4 8 4 28 15 O 0,0
17.02.2020 15:00:00 6,2 5,6 4 2 31 17 ONO 0,0
17.02.2020 14:00:00 5,7 5,4 5 3 35 19 ONO 0,0
17.02.2020 13:00:00 5,7 5,6 8 4 46 25 O -
17.02.2020 12:00:00 5,8 5,7 9 5 48 26 O 1,0
17.02.2020 11:00:00 6,0 5,9 8 4 31 17 O 1,0
17.02.2020 10:00:00 6,4 6,3 8 4 28 15 ONO 2,0
17.02.2020 09:00:00 6,7 6,6 8 4 35 19 O 1,0
17.02.2020 08:00:00 7,0 6,7 5 3 22 12 ONO 3,0
17.02.2020 07:00:00 7,6 7,0 4 2 11 6 O -
17.02.2020 06:00:00 8,0 6,5 4 2 13 7 O 0,0
17.02.2020 05:00:00 8,1 7,0 4 2 13 7 OSO 0,0
17.02.2020 04:00:00 8,2 7,0 2 1 21 11 ONO 0,0
17.02.2020 03:00:00 10,1 5,3 5 3 41 22 ONO 0,0
17.02.2020 02:00:00 11,9 4,6 13 7 72 39 O 0,0
17.02.2020 01:00:00 13,2 4,6 21 11 70 38 OSO -
17.02.2020 00:00:00 13,3 5,2 24 13 68 37 SO 0,0
16.02.2020 23:00:00 13,2 5,1 24 13 63 34 SO 0,0
16.02.2020 22:00:00 12,7 5,1 15 8 59 32 OSO 0,0
16.02.2020 21:00:00 12,7 4,6 16 9 54 29 OSO 0,0
16.02.2020 20:00:00 12,8 5,0 15 8 50 27 OSO 0,0
16.02.2020 19:00:00 12,9 5,3 22 12 59 32 SO -
16.02.2020 18:00:00 13,5 5,1 24 13 57 31 SSO 0,0
16.02.2020 17:00:00 14,2 4,5 24 13 59 32 SSO 0,0
16.02.2020 16:00:00 14,7 4,4 21 11 55 30 SSO 0,0
16.02.2020 15:00:00 15,5 3,0 22 12 65 35 SSO 0,0
16.02.2020 14:00:00 15,5 1,9 22 12 52 28 SO 0,0
16.02.2020 13:00:00 15,3 2,4 16 9 54 29 SSO -
16.02.2020 12:00:00 15,1 1,2 18 10 52 28 SO 0,0
16.02.2020 11:00:00 13,9 1,5 15 8 59 32 OSO 0,0
16.02.2020 10:00:00 13,2 0,2 26 14 63 34 SO 0,0
16.02.2020 09:00:00 12,5 -0,1 26 14 67 36 SSO 0,0
16.02.2020 08:00:00 12,1 -0,4 24 13 65 35 SSO 0,0
16.02.2020 07:00:00 11,9 0,0 18 10 55 30 SSO -
16.02.2020 06:00:00 11,8 0,5 22 12 55 30 SSO 0,0
16.02.2020 05:00:00 11,6 1,2 18 10 52 28 SSO 0,0
16.02.2020 04:00:00 11,7 1,6 22 12 54 29 SSO 0,0
16.02.2020 03:00:00 11,2 1,7 26 14 52 28 SSO 0,0
16.02.2020 02:00:00 11,3 2,1 18 10 48 26 SO 0,0
16.02.2020 01:00:00 11,2 2,0 15 8 46 25 OSO -
16.02.2020 00:00:00 11,0 2,0 11 6 42 23 O 0,0
15.02.2020 23:00:00 10,9 1,7 11 6 42 23 OSO 0,0
15.02.2020 22:00:00 10,9 1,7 11 6 44 24 OSO 0,0
15.02.2020 21:00:00 11,3 2,1 15 8 41 22 SO 0,0
15.02.2020 20:00:00 11,5 1,7 13 7 35 19 SO 0,0
15.02.2020 19:00:00 11,2 1,1 9 5 28 15 S -
15.02.2020 18:00:00 10,0 0,0 5 3 24 13 S 0,0
15.02.2020 17:00:00 10,5 1,0 8 4 24 13 S 0,0
15.02.2020 16:00:00 13,2 0,2 9 5 31 17 SO 0,0
15.02.2020 15:00:00 12,7 0,1 8 4 28 15 S 0,0
15.02.2020 14:00:00 11,0 2,3 11 6 31 17 SSO 0,0
15.02.2020 13:00:00 10,7 3,5 9 5 26 14 SSO -
15.02.2020 12:00:00 10,4 3,9 4 2 21 11 O 0,0
15.02.2020 11:00:00 7,4 2,7 11 6 22 12 SSO 0,0
15.02.2020 10:00:00 5,7 2,9 8 4 22 12 S 0,0
15.02.2020 09:00:00 3,1 1,9 8 4 21 11 SE 0,0
15.02.2020 08:00:00 2,9 1,6 8 4 16 9 SE 0,0
15.02.2020 07:00:00 3,3 1,5 8 4 16 9 SSO -
15.02.2020 06:00:00 3,2 1,4 8 4 21 11 SSE 0,0
15.02.2020 05:00:00 3,6 2,0 9 5 18 10 SE 0,0
15.02.2020 04:00:00 3,9 2,3 4 2 18 10 SSE 0,0
15.02.2020 03:00:00 4,2 2,5 4 2 15 8 SSE 0,0

tt = Temperatura
td = dewpoint
ff = velocità del vento
fx = gusts
dd = direzione del vento
rr = precipitazioni

Stazioni seguenti

WeatherPro
AMSI
MeteoEarth